Погода в Снежинском

Россия / Кемеровская область (Кузбасс)     54°26′27″N   86°22′16″E
темп.,
°C
ветер,
м/с
пор.,
м/с
влажн.,
%
обл.,
%
осадки,
мм/ч
давл.,
гПа
погр.,
м
13 мая, чт
чт1301:00+12сз114362 0.0 101310
04:00+10з115039 0.0 101310
07:00+11юв225368 0.0 101487
10:00+17ю233769 0.0 1013628
13:00+21зюз122785 0.0 10122902
16:00+16с335173 0.5 1013415
19:00+17зсз3346100 0.8 1012646
22:00+13всв236885 1.1 101383
14 мая, пт
пт1401:00+11зюз227424 1.1 101318
04:00+9з338292 0.0 101352
07:00+10ссз378171 0.0 1015324
10:00+13ссз456484 0.0 1016960
13:00+16сз794117 0.0 10172023
16:00+15ссз79344 0.0 10181830
19:00+14ссз6831100 0.0 10201765
22:00+10сз334297 0.0 102343
15 мая, сб
сб1501:00+9з2442100 0.0 1024111
04:00+9зюз4747100 0.0 1024298
07:00+9юз51154100 0.0 1024374
10:00+11юз6134663 0.0 1024493
13:00+13ююз51046100 0.3 1022464
16:00+18юз5938100 0.0 10211329
19:00+17ю4745100 0.0 1019179
22:00+15ююз41254100 0.0 1018254
16 мая, вс
вс1601:00+15юз5135190 0.1 1017326
04:00+13юз5145798 0.6 1015346
07:00+14юз4115695 1.3 1015463
10:00+17зюз4659100 2.4 1015722
13:00+19зюз565970 2.8 10141048
16:00+21зсз41155100 0.8 1010676
19:00+17с5876100 4.6 1013551
22:00+13ссв369165 1.0 1016169
17 мая, пн
пн1701:00+12с468799 1.0 1018407
04:00+11с2482100 0.0 1018254
07:00+11ссв127653 0.0 1018178
10:00+15юз115950 0.0 1018747
13:00+19зюз344968 0.0 10171077
16:00+23зюз574430 0.0 10141844
19:00+23юз69506 0.0 10131066
22:00+19юз715615 0.1 1011433